Weather History for Concord, CA

Change the Weather History Date:

Tuesday, February 19, 2013

  Actual Average Record
Temperature  
Mean Temperature 44 °F 53 °F  
Max Temperature 49 °F 62 °F 66 °F (2014)
Min Temperature 39 °F 44 °F 37 °F (2006)
Degree Days  
Heating Degree Days 21    
Month to date heating degree days 300  
Since 1 July heating degree days 1829  
Cooling Degree Days 0    
Month to date cooling degree days 0  
Year to date cooling degree days 0  
Moisture  
Dew Point 37 °F    
Average Humidity 73    
Maximum Humidity 89    
Minimum Humidity 56    
Precipitation  
Precipitation 0.24 in - 0.80 in (1993)
Month to date precipitation 0.32  
Year to date precipitation 0.72  
Since 1 July precipitation 10.36  
Sea Level Pressure  
Sea Level Pressure 29.82 in    
Wind  
Wind Speed 9 mph (SW)    
Max Wind Speed 24 mph    
Max Gust Speed 29 mph    
Visibility 9 miles    
Events Rain    
T = Trace of Precipitation, MM = Missing Value Source: NWS Daily Summary

Daily Weather History Graph

Daily Weather History Graph

Search for Another Location

Airport:

Trip Planner

Search our weather history database for the weather conditions in past years. The results will help you decide how hot, cold, wet, or windy it might be!

Date:

Astronomy

Feb. 19, 2013 Rise Set
Actual Time 6:52 AM PST 5:51 PM PST
Civil Twilight 6:26 AM PST 6:18 PM PST
Nautical Twilight 5:55 AM PST 6:49 PM PST
Astronomical Twilight 5:24 AM PST 7:19 PM PST
Moon 12:30 PM PST (2/19) 2:26 AM PST (2/19)
Length of Visible Light 11h 52m
Length of Day
10h 58m
Waxing Gibbous, 68% of the Moon is Illuminated
Feb 19
Waxing Gibbous
Feb 25
Full
Mar 4
Last Quarter
Mar 11
New
Mar 19
First Quarter

Hourly Weather History & Observations

Time (PST) Temp. Windchill Dew Point Humidity Pressure Visibility Wind Dir Wind Speed Gust Speed Precip Events Conditions
12:53 AM 45.0 °F 41.2 °F 35.1 °F 68% 29.93 in 10.0 mi WSW 6.9 mph - N/A   Mostly Cloudy
1:53 AM 46.0 °F 42.5 °F 36.0 °F 68% 29.92 in 10.0 mi WSW 6.9 mph 16.1 mph N/A   Overcast
2:53 AM 46.0 °F 41.9 °F 36.0 °F 68% 29.90 in 10.0 mi WSW 8.1 mph - N/A   Overcast
3:35 AM 46.4 °F 42.9 °F 37.4 °F 71% 29.93 in 10.0 mi SW 6.9 mph - N/A   Overcast
3:53 AM 46.0 °F 42.5 °F 37.0 °F 71% 29.89 in 10.0 mi SW 6.9 mph - N/A   Overcast
4:53 AM 45.0 °F 40.1 °F 37.9 °F 76% 29.87 in 10.0 mi SSE 9.2 mph - N/A   Partly Cloudy
5:53 AM 46.0 °F 41.9 °F 37.9 °F 73% 29.86 in 10.0 mi South 8.1 mph - N/A   Mostly Cloudy
6:08 AM 46.4 °F 41.9 °F 39.2 °F 76% 29.90 in 10.0 mi SSW 9.2 mph - 0.00 in Rain Light Rain
6:25 AM 44.6 °F 38.8 °F 41.0 °F 87% 29.89 in 10.0 mi SSW 11.5 mph - 0.01 in Rain Light Rain
6:53 AM 45.0 °F 39.3 °F 41.0 °F 86% 29.83 in 10.0 mi South 11.5 mph - 0.01 in   Scattered Clouds
7:53 AM 46.0 °F 39.0 °F 41.0 °F 83% 29.81 in 10.0 mi South 17.3 mph - N/A   Overcast
8:53 AM 46.9 °F - 42.1 °F 83% 29.80 in 10.0 mi South 12.7 mph - N/A   Overcast
9:39 AM 44.6 °F 39.2 °F 42.8 °F 93% 29.84 in 2.0 mi WSW 10.4 mph - 0.07 in Rain Rain
10:00 AM 44.6 °F 38.8 °F 39.2 °F 81% 29.84 in 5.0 mi SSW 11.5 mph - 0.02 in Rain Rain
10:53 AM 44.1 °F 40.8 °F 39.9 °F 85% 29.81 in 10.0 mi WSW 5.8 mph - 0.06 in Rain Light Rain
11:53 AM 45.0 °F 41.2 °F 39.9 °F 82% 29.77 in 10.0 mi South 6.9 mph - 0.02 in   Overcast
12:40 PM 42.8 °F 37.5 °F 37.4 °F 81% 29.81 in 7.0 mi West 9.2 mph - 0.03 in Rain Light Rain
12:53 PM 44.1 °F 39.0 °F 37.9 °F 79% 29.76 in 10.0 mi SW 9.2 mph - 0.03 in   Overcast
1:53 PM 45.0 °F 40.1 °F 37.9 °F 76% 29.74 in 10.0 mi SW 9.2 mph - 0.00 in   Overcast
2:53 PM 46.9 °F - 36.0 °F 66% 29.73 in 10.0 mi WSW 15.0 mph 21.9 mph N/A   Scattered Clouds
4:53 PM 46.0 °F 39.6 °F 33.1 °F 61% 29.71 in 10.0 mi West 15.0 mph 20.7 mph 0.00 in   Scattered Clouds
5:53 PM 44.1 °F 40.8 °F 33.1 °F 65% 29.72 in 10.0 mi WSW 5.8 mph - N/A   Scattered Clouds
6:53 PM 42.1 °F 37.1 °F 33.1 °F 70% 29.73 in 10.0 mi West 8.1 mph - N/A   Clear
7:53 PM 43.0 °F 38.8 °F 34.0 °F 71% 29.74 in 10.0 mi NW 6.9 mph - N/A   Overcast
8:53 PM 41.0 °F 36.4 °F 34.0 °F 76% 29.77 in 10.0 mi NNW 6.9 mph - N/A   Overcast
9:53 PM 39.9 °F - 33.1 °F 77% 29.78 in 10.0 mi Calm Calm - 0.00 in   Partly Cloudy
10:53 PM 39.9 °F 35.1 °F 32.0 °F 73% 29.80 in 10.0 mi WNW 6.9 mph - N/A   Overcast
11:53 PM 41.0 °F 36.4 °F 33.1 °F 73% 29.81 in 10.0 mi WNW 6.9 mph - N/A   Overcast